Location: Bright Skies Observatory
(38.9689°N, 77.0681°W)
Time: 17:21:27
(UTC-04:00)

Daily predictions for brighter satellites

Satellite Brightness Start Highest point End
(mag) Time Altitude Azimuth Time Altitude Azimuth Time Altitude Azimuth
ERS-2 2.2 20:51:44 10° SSE 20:55:22 64° ENE 20:59:02 10° N
Cosmos 2360 Rocket 3.6 20:52:24 10° N 20:56:59 25° NE 21:01:33 10° ESE
Cosmos 1980 Rocket 3.4 20:54:31 10° NW 20:59:50 43° WSW 21:05:08 10° S
Cosmos 1666 2.8 20:59:15 10° N 21:03:06 62° E 21:06:55 10° SSE
ATLAS 3B R/B 4.2 20:58:36 10° WSW 21:05:21 43° NW 21:11:54 10° NNE
Cosmos 1898 Rocket 3.6 21:00:03 10° NNW 21:05:22 76° ENE 21:10:41 10° SSE
Cosmos 1814 Rocket 4.1 21:01:34 10° S 21:06:42 59° ESE 21:11:55 10° NNE
EPKM 4.3 21:02:12 10° WSW 21:07:05 17° SSW 21:09:35 10° SSE
Atlas Centaur 2 3.2 21:07:37 10° WSW 21:10:10 16° SSW 21:12:31 10° SSE
Meteor 1-19 Rocket 4.3 21:07:09 10° S 21:13:01 70° E 21:18:54 10° NNE
Cosmos 990 Rocket 4.1 21:09:35 10° NNW 21:14:47 66° ENE 21:19:59 10° SSE
Cosmos 1975 3.0 21:11:44 10° N 21:15:45 74° W 21:19:43 10° S
Timation 2 Rocket 4.3 21:10:32 10° SSW 21:16:27 69° WNW 21:22:32 10° NNE
Aureole 2 Rocket 3.3 21:14:11 10° N 21:16:38 25° ENE 21:18:19 15° ESE
Resurs 1-3 3.9 21:12:45 10° S 21:17:07 72° WSW 21:21:31 10° NNW
Cosmos 1455 Rocket 3.8 21:16:53 10° N 21:20:57 36° ENE 21:24:21 14° SE
H-2A R/B 3.0 21:17:08 12° SE 21:20:59 29° ENE 21:25:19 10° N
Cosmos 1743 2.7 21:17:22 10° N 21:21:11 83° W 21:24:58 10° S
Iridium 2 3.7 21:18:18 10° S 21:22:04 60° E 21:25:51 10° N
GPS 2-05 Rocket1 3.7 21:25:25 10° SW 21:28:19 28° SSE 21:29:59 18° ESE
Cosmos 2333 Rocket 4.3 21:27:02 10° NNE 21:29:33 13° NE 21:32:04 10° ENE
Cosmos 1975 Rocket 3.4 21:26:59 10° SSW 21:31:17 68° W 21:35:35 10° N
COSMOS 2428 4.3 21:28:44 10° N 21:32:54 20° NE 21:36:42 11° E
Cosmos 1833 4.2 21:32:59 10° SSW 21:38:42 72° ESE 21:44:23 10° NNE
ARGOS 3.3 21:37:34 15° SSE 21:41:55 61° ENE 21:47:15 10° N
Meteor 2-4 Rocket 3.6 21:37:06 10° S 21:42:32 86° E 21:48:10 10° N
Cosmos 1242 Rocket 3.7 21:39:33 10° NNW 21:43:00 41° W 21:46:22 10° SSW
CZ-4B DEB 4.5 21:42:02 16° S 21:44:43 81° WSW 21:48:13 10° NNW
Terra 4.0 21:42:55 10° E 21:44:47 12° ENE 21:46:38 10° NE
Cosmos 540 Rocket 3.5 21:40:06 10° S 21:45:08 57° ESE 21:50:13 10° NNE
Cosmos 1515 3.9 21:44:24 18° SSE 21:47:01 51° E 21:50:45 10° NNE
Helios 1B rocket 4.1 21:45:28 10° NE 21:48:07 16° E 21:48:12 16° E
Cosmos 1544 Rocket 3.5 21:44:12 10° N 21:48:38 78° E 21:51:53 18° SSE
Cosmos 2150 Rocket 4.0 21:43:38 10° NNW 21:49:01 88° WSW 21:53:01 18° SSE
SPOT 5 4.1 21:47:08 18° ESE 21:49:10 24° ENE 21:52:53 10° NNE
Cosmos 2322 Rocket 2.9 21:47:24 10° NNW 21:52:48 51° WSW 21:57:49 12° S
Spot 2 Rocket 4.4 21:48:40 10° S 21:53:29 46° W 21:58:20 10° NNW
Shenzhou-11 Module 1.8 21:50:41 10° WNW 21:53:39 73° SSW 21:54:34 39° SE
Cosmos 2322 4.1 21:49:19 10° NNW 21:54:54 51° ENE 21:58:16 23° SE
Lacrosse 5 rocket 1.7 21:51:06 10° NW 21:55:22 56° NE 21:57:27 26° ESE
Cosmos 2237 Rocket 4.4 21:54:27 10° NNE 21:56:25 12° NE 21:58:23 10° ENE
SJ 16-02 1.9 21:52:23 10° N 21:56:38 43° ENE 21:58:37 27° ESE
Cosmos 1937 Rocket 4.3 21:55:00 10° NNW 21:59:54 46° WSW 22:04:20 12° S
Tiangong 2 2.3 21:58:01 10° WNW 22:01:01 40° N 22:03:05 17° ENE
SL-16 R/B 3.3 21:58:27 10° NW 22:03:39 38° WSW 22:08:42 11° S
Cosmos 1536 Rocket 3.5 22:01:18 17° S 22:04:42 81° E 22:09:11 10° N
Cosmos 841 Rocket 4.4 22:01:23 10° SW 22:06:29 52° WNW 22:11:38 10° N
MetOp-B 4.1 22:02:54 22° SSE 22:06:29 85° ENE 22:11:52 10° NNW
BREEZE M DEB (TANK) 2.9 21:58:40 10° WNW 22:07:48 80° SW 22:09:21 34° SE
Resurs 01 Rocket 4.1 22:11:12 10° SW 22:14:10 18° W 22:17:08 10° NW
USA 234 3.5 22:08:20 10° NE 22:14:52 72° NW 22:21:24 10° WSW
Cosmos 372 Rocket 4.0 22:10:48 10° NNW 22:15:53 62° ENE 22:18:02 33° SE
Cosmos 1340 Rocket 4.1 22:12:42 10° SSW 22:16:33 40° WNW 22:20:25 10° N
CZ-4C R/B 3.4 22:11:23 10° NNW 22:18:23 50° NE 22:23:08 24° ESE
Cosmos 2219 3.5 22:20:18 30° SSE 22:22:34 45° ESE 22:28:00 10° NE
DELTA 2 R/B (1) 3.7 22:18:01 10° SW 22:23:19 46° SSE 22:26:36 22° E
Cosmos 1092 Rocket 4.5 22:17:53 10° N 22:23:57 45° ENE 22:26:28 31° SE
Nadezhda 4 Rocket 4.0 22:18:16 10° N 22:24:35 68° E 22:27:44 31° SSE
Cosmos 2237 4.2 22:20:51 10° NNW 22:26:37 89° WSW 22:29:15 34° SSE
SL-08 RB Rocket 4.1 22:24:27 27° S 22:26:48 60° W 22:31:21 10° NNW
ERS-1 Rocket 3.0 22:27:39 31° S 22:30:06 75° WSW 22:35:09 10° NNW
CARTOSAT-1 4.1 22:35:58 39° E 22:36:33 41° ENE 22:40:37 10° N
CZ-2C R/B 3.9 22:32:54 10° NE 22:37:24 24° E 22:37:26 24° E
CENTAUR R/B 4.1 22:34:15 10° WSW 22:39:49 37° NW 22:46:10 10° NNE
Cosmos 2360 Rocket 2.9 22:35:49 10° NW 22:41:11 47° WSW 22:43:54 27° SSW
Cosmos 1025 Rocket 2.9 22:40:14 46° S 22:41:31 87° W 22:45:56 10° N
Cosmos 2219 Rocket 2.6 22:38:38 10° NNW 22:44:04 51° ENE 22:45:43 39° ESE
Cosmos 2333 4.1 22:43:00 10° NNW 22:48:43 86° ENE 22:50:29 46° SSE
Cosmos 2026 Rocket 4.4 22:45:14 10° N 22:51:07 45° ENE 22:52:35 39° ESE
CZ-2C R/B 3.7 22:50:58 38° ESE 22:52:14 44° ENE 22:57:34 10° N
Okean 2 4.3 22:53:27 29° SW 22:55:08 45° W 22:59:10 10° N
Cosmos 1606 Rocket 3.9 22:51:44 10° N 22:56:05 50° E 22:56:10 50° E
SPOT 1/Viking Rocket 3.6 22:55:12 44° S 22:56:47 70° WSW 23:01:56 10° NNW
Meteor 1-29 3.4 22:54:27 10° NNE 22:57:17 56° NNE 22:57:17 56° NNE
Cosmos 783 Rocket 4.5 22:56:57 36° SSW 22:59:12 82° WNW 23:04:32 10° NNE
H-2A R/B 3.5 22:57:46 19° SW 23:00:19 29° W 23:04:42 10° NW
Cosmos 1125 Rocket 3.9 22:55:34 10° NNW 23:00:41 55° WSW 23:02:08 41° SSW
Helios 1A 3.6 23:00:58 43° SW 23:01:37 47° W 23:05:40 10° NNW
Landsat 7 3.8 23:02:11 57° SSW 23:03:04 73° WSW 23:07:50 10° NNW
Cosmos 2142 Rocket 4.4 23:06:59 50° SSE 23:08:36 72° E 23:14:47 10° N
Cosmos 1805 4.5 23:07:14 10° N 23:10:05 33° NE 23:10:05 33° NE
COSMOS 2455 3.0 23:14:03 51° ESE 23:14:09 51° ESE 23:19:59 10° NE
Cosmos 2333 Rocket 2.1 23:09:00 10° NNW 23:14:44 81° ENE 23:15:46 61° SE
SL-16 R/B 4.0 23:11:03 10° N 23:15:05 19° NE 23:16:59 17° ENE
COSMOS 2428 3.0 23:11:58 10° NNW 23:17:34 59° WSW 23:18:42 49° SSW
YAOGAN 11 4.0 23:19:00 84° ENE 23:19:00 84° ENE 23:23:31 10° NNW
Spot 1 4.2 23:19:22 59° W 23:19:22 59° W 23:23:14 10° NNW
Cosmos 2195 Rocket 4.4 23:13:06 10° N 23:19:17 90° ESE 23:20:46 55° S
Cosmos 1627 Rocket 4.3 23:15:35 10° N 23:21:45 89° E 23:23:06 58° S
Terra 1.8 23:21:33 69° SW 23:21:53 72° WSW 23:26:39 10° NNW
Helios 1B rocket 3.7 23:19:42 10° N 23:23:30 36° WNW 23:24:33 31° WSW
Cosmos 773 Rocket 3.9 23:23:50 64° E 23:23:50 64° E 23:28:42 10° NNE
Cosmos 1980 3.9 23:18:36 10° NNW 23:24:11 57° ENE 23:24:56 52° E
Cosmos 1634 Rocket 4.2 23:23:15 40° SSW 23:25:35 71° W 23:31:56 10° N
SPOT 5 4.1 23:26:23 27° WSW 23:27:06 29° W 23:31:04 10° NW
Cosmos 2297 Rocket 2.2 23:29:00 59° E 23:29:00 59° E 23:34:25 10° NNE
Nimbus 7 Rocket 4.4 23:25:04 10° N 23:30:58 76° WNW 23:32:43 47° SSW
Cosmos 1892 Rocket 3.7 23:31:41 69° NW 23:31:41 69° NW 23:35:39 10° N
Cosmos 2227 Rocket 2.0 23:32:28 72° SE 23:32:40 72° ESE 23:38:20 10° NNE
Lacrosse 5 rocket 3.7 23:31:33 10° W 23:33:08 15° WSW 23:33:08 15° WSW
SJ 16-02 3.6 23:32:15 10° WNW 23:34:49 15° W 23:35:37 14° WSW
Tiangong 2 4.0 23:34:46 10° WNW 23:35:15 14° WNW 23:35:15 14° WNW
Cosmos 2228 3.4 23:34:52 10° N 23:38:31 63° NNW 23:38:31 63° NNW
Cosmos 2237 Rocket 2.1 23:35:46 10° NNW 23:41:30 74° ENE 23:41:55 70° ESE
Cosmos 1953 4.0 23:41:07 10° N 23:43:28 27° NE 23:43:28 27° NE
ISS -0.6 23:43:49 10° N 23:45:03 12° NNE 23:46:13 10° NE
Iridium 4 Rocket 3.8 23:46:41 64° E 23:46:51 65° E 23:52:42 10° N
Cosmos 2082 3.6 23:48:08 72° E 23:48:08 72° E 23:53:44 10° NNE
Cosmos 1726 Rocket 4.4 23:46:39 10° NNW 23:50:28 44° WNW 23:50:28 44° WNW
